K4SHP-16 Weather Reports


time (UTC)temp
C
wind
direction
speed
KPH
gust
KPH
rain 1hr
cm
rain 24hr
cm
rain mn
cm
humidity
%
barometer
mb
20260906120904 22 45 1.6 4.8 0.00 1.02 0.03 95 1011.5
20260906120004 21 42 1.6 4.8 0.00 1.02 0.03 95 1011.4
20260906115403 21 47 0.0 3.2 0.00 1.02 0.03 95 1011.4
20260906114524 21 206 0.0 1.6 0.00 1.02 0.03 95 1011.4
20260906113603 21 0 0.0 0.0 0.03 1.02 0.03 95 1011.2
20260906112703 21 0 0.0 0.0 0.03 1.02 0.03 95 1011.1
20260906111803 21 0 0.0 0.0 0.03 1.02 0.03 95 1011.1
20260906110903 20 0 0.0 0.0 0.03 1.02 0.03 95 1011.0
20260906110004 20 0 0.0 0.0 0.03 1.02 0.03 95 1010.7
20260906105403 20 0 0.0 0.0 0.03 1.02 0.03 95 1010.7
20260906104504 20 206 0.0 1.6 0.03 1.02 0.03 95 1010.7
20260906103603 20 0 0.0 0.0 0.00 0.99 0.00 95 1010.7
20260906102703 20 0 0.0 0.0 0.00 0.99 0.00 95 1010.6
20260906101803 21 213 0.0 1.6 0.00 0.99 0.00 95 1010.5
20260906100903 20 217 0.0 1.6 0.00 0.99 0.00 95 1010.4
20260906100024 21 274 0.0 3.2 0.00 0.99 0.00 95 1010.1
20260906095403 20 274 0.0 3.2 0.00 0.99 0.00 95 1010.2
20260906094504 20 22 0.0 1.6 0.00 0.99 0.00 95 1010.2
20260906093603 20 22 0.0 1.6 0.00 0.99 0.00 95 1009.9
20260906092724 20 0 0.0 0.0 0.00 0.99 0.00 95 1010.1
20260906091803 20 0 0.0 0.0 0.00 0.99 0.00 95 1010.0
20260906090903 20 0 0.0 0.0 0.00 0.99 0.00 95 1009.8
20260906090003 20 0 0.0 1.6 0.00 0.99 0.00 95 1009.9
20260906085404 20 0 0.0 1.6 0.00 0.99 0.00 95 1009.9
20260906084525 20 23 0.0 1.6 0.00 0.99 0.00 95 1010.0
20260906083603 20 18 0.0 1.6 0.00 0.99 0.00 95 1010.0
20260906082703 20 4 0.0 1.6 0.00 0.99 0.00 95 1009.8
20260906081824 20 0 0.0 0.0 0.00 0.99 0.00 95 1009.9
20260906080903 20 4 0.0 1.6 0.00 0.99 0.00 95 1010.0
20260906080024 21 10 0.0 1.6 0.00 0.99 0.00 95 1009.9
20260906075403 21 21 0.0 1.6 0.00 0.99 0.00 95 1010.0
20260906074524 21 0 0.0 0.0 0.00 0.99 0.00 95 1010.0
20260906073624 21 0 0.0 0.0 0.00 0.99 0.00 95 1010.2
20260906072703 21 134 0.0 1.6 0.00 0.99 0.00 95 1010.2
20260906071803 21 0 0.0 0.0 0.00 0.99 0.00 95 1010.2
20260906070903 21 134 0.0 1.6 0.00 0.99 0.00 95 1010.4
20260906070003 21 0 0.0 0.0 0.00 0.99 0.00 95 1010.3
20260906065424 21 0 0.0 0.0 0.00 0.99 0.00 95 1010.3
20260906064503 21 0 0.0 0.0 0.00 0.99 0.00 95 1010.6
20260906063603 21 0 0.0 0.0 0.00 0.99 0.00 95 1010.5
20260906062703 21 134 0.0 1.6 0.00 0.99 0.00 95 1010.5
20260906061803 21 134 0.0 1.6 0.00 0.99 0.00 95 1010.6
20260906060903 21 0 0.0 0.0 0.00 0.99 0.00 95 1010.5
20260906060003 21 0 0.0 0.0 0.00 0.99 0.00 95 1010.6
20260906055403 21 0 0.0 0.0 0.00 0.99 0.00 95 1010.5
20260906054503 21 0 0.0 0.0 0.00 0.99 0.00 95 1010.5
20260906053603 21 0 0.0 0.0 0.00 0.99 0.00 95 1010.5
20260906052703 21 0 0.0 0.0 0.00 0.99 0.00 95 1010.5
20260906051803 21 0 0.0 0.0 0.00 0.99 0.00 95 1010.6
20260906050903 21 0 0.0 0.0 0.00 0.99 0.00 95 1010.9
20260906050003 21 0 0.0 0.0 0.00 0.99 0.00 95 1011.0
20260906045424 21 0 0.0 0.0 0.00 0.99 0.00 95 1011.1
20260906044503 21 0 0.0 0.0 0.00 0.99 0.00 94 1011.2
20260906043603 21 0 0.0 0.0 0.00 0.99 0.00 94 1011.4
20260906042703 21 0 0.0 0.0 0.00 0.99 0.00 94 1011.3
20260906041803 21 0 0.0 0.0 0.00 0.99 0.00 94 1011.5
20260906040903 21 0 0.0 0.0 0.00 0.99 0.00 94 1011.4
20260906040003 21 0 0.0 0.0 0.00 0.99 0.00 94 1011.3
20260906035424 21 0 0.0 0.0 0.00 0.99 0.99 94 1011.4
20260906034503 21 143 0.0 1.6 0.00 0.99 0.99 94 1011.4
20260906033603 21 143 0.0 1.6 0.00 0.99 0.99 94 1011.5
20260906032703 21 0 0.0 1.6 0.00 0.99 0.99 94 1011.5
20260906031803 21 115 0.0 1.6 0.00 0.99 0.99 94 1011.6
20260906030903 21 0 0.0 1.6 0.00 0.99 0.99 94 1011.7
20260906030024 21 115 0.0 1.6 0.03 0.99 0.99 94 1011.8
20260906025424 21 74 0.0 3.2 0.05 0.99 0.99 94 1011.8
20260906024503 21 78 3.2 8.0 0.05 0.99 0.99 94 1011.8
20260906023603 21 51 3.2 9.7 0.05 0.99 0.99 94 1011.8
20260906022703 22 44 3.2 9.7 0.05 0.99 0.99 94 1011.7
20260906021803 22 81 1.6 9.7 0.05 0.99 0.99 94 1011.4
20260906020903 22 185 1.6 6.4 0.05 0.99 0.99 94 1010.9
20260906020003 22 198 1.6 4.8 0.03 0.97 0.97 94 1011.1
20260906015424 22 357 1.6 4.8 0.00 0.94 0.94 94 1011.4
20260906014503 21 360 0.0 4.8 0.00 0.94 0.94 94 1011.4
20260906013603 21 193 1.6 8.0 0.00 0.94 0.94 94 1011.0
20260906012703 21 191 3.2 8.0 0.00 0.94 0.94 94 1010.6
20260906011803 21 201 0.0 1.6 0.00 0.94 0.94 94 1010.8
20260906010903 21 326 0.0 4.8 0.00 0.94 0.94 94 1010.8
20260906010003 21 18 3.2 12.9 0.00 0.94 0.94 94 1010.8
20260906005424 21 36 4.8 12.9 0.00 0.94 0.94 94 1010.9
20260906004524 21 100 0.0 3.2 0.00 0.94 0.94 94 1010.7
20260906003624 21 169 1.6 6.4 0.00 0.94 0.94 94 1010.7
20260906002724 21 269 0.0 1.6 0.00 0.94 0.94 94 1010.7
20260906001803 21 281 0.0 1.6 0.00 0.94 0.94 94 1011.0
20260906000903 21 266 0.0 1.6 0.00 0.94 0.94 94 1010.9
20260906000003 21 201 0.0 1.6 0.00 0.94 0.94 94 1010.7
20260905235403 21 147 1.6 6.4 0.00 0.94 0.94 94 1010.4
20260905234524 21 109 1.6 9.7 0.00 0.94 0.94 94 1010.3
20260905233624 21 50 1.6 9.7 0.00 0.94 0.94 93 1010.2
20260905232703 21 0 0.0 0.0 0.00 0.94 0.94 94 1009.9
20260905231803 21 332 0.0 1.6 0.05 0.94 0.94 94 1010.4
20260905230903 21 206 1.6 8.0 0.91 0.94 0.94 93 1011.2
20260905230003 21 182 1.6 6.4 0.94 0.94 0.94 93 1011.5
20260905225424 21 256 0.0 1.6 0.94 0.94 0.94 93 1011.4
20260905224503 21 183 3.2 6.4 0.94 0.94 0.94 92 1011.3
20260905223603 21 127 1.6 6.4 0.94 0.94 0.94 91 1011.1
20260905222703 21 303 1.6 20.9 0.94 0.94 0.94 90 1010.8
20260905221803 22 8 14.5 32.2 0.89 0.89 0.89 82 1010.6
20260905220903 28 357 17.7 37.0 0.03 0.03 0.03 73 1011.3
20260905220003 32 353 3.2 33.8 0.00 0.00 0.00 76 1010.7
20260905215403 33 310 0.0 1.6 0.00 0.00 0.00 74 1009.6
20260905214503 33 196 0.0 4.8 0.00 0.00 0.00 72 1008.2
20260905213603 34 0 0.0 0.0 0.00 0.00 0.00 72 1008.8
20260905212703 34 0 0.0 0.0 0.00 0.00 0.00 70 1009.1
20260905211803 35 153 1.6 4.8 0.00 0.00 0.00 69 1009.5
20260905210903 36 171 0.0 4.8 0.00 0.00 0.00 67 1009.4
20260905210024 36 178 1.6 6.4 0.00 0.00 0.00 63 1009.2
20260905205403 36 154 1.6 8.0 0.00 0.00 0.00 63 1009.3
20260905204503 36 194 1.6 8.0 0.00 0.00 0.00 63 1009.1
20260905203603 37 188 1.6 4.8 0.00 0.00 0.00 62 1009.1
20260905202703 37 156 0.0 4.8 0.00 0.00 0.00 63 1009.0
20260905201803 37 190 3.2 8.0 0.00 0.00 0.00 66 1008.8
20260905200903 37 182 1.6 6.4 0.00 0.00 0.00 64 1009.0
20260905200024 37 167 1.6 6.4 0.00 0.00 0.00 60 1009.3
20260905195403 37 169 1.6 6.4 0.00 0.00 0.00 61 1009.3
20260905194503 36 164 1.6 6.4 0.00 0.00 0.00 63 1009.2
20260905193603 36 12 1.6 6.4 0.00 0.00 0.00 60 1009.3
20260905192703 36 213 1.6 4.8 0.00 0.00 0.00 62 1009.4
20260905191803 37 75 0.0 4.8 0.00 0.00 0.00 59 1009.6
20260905190903 37 169 0.0 3.2 0.00 0.00 0.00 62 1009.6
20260905190003 36 132 1.6 8.0 0.00 0.00 0.00 64 1009.8
20260905185424 36 125 1.6 12.9 0.00 0.00 0.00 63 1010.0
20260905184503 37 268 0.0 1.6 0.00 0.00 0.00 63 1010.3
20260905183624 37 288 0.0 4.8 0.00 0.00 0.00 65 1010.5
20260905182703 36 170 1.6 9.7 0.00 0.00 0.00 63 1010.6
20260905181824 36 156 1.6 6.4 0.00 0.00 0.00 64 1010.8
20260905180903 36 19 1.6 6.4 0.00 0.00 0.00 67 1010.9
20260905180003 36 344 1.6 11.3 0.00 0.00 0.00 67 1011.0
20260905175403 36 282 1.6 6.4 0.00 0.00 0.00 69 1011.2
20260905174524 36 258 0.0 3.2 0.00 0.00 0.00 65 1011.3
20260905173603 35 336 0.0 3.2 0.00 0.00 0.00 69 1011.5
20260905172724 35 3 1.6 6.4 0.00 0.00 0.00 70 1011.5
20260905171803 35 24 1.6 8.0 0.00 0.00 0.00 68 1011.6
20260905170903 35 8 1.6 9.7 0.00 0.00 0.00 70 1011.6
20260905170003 35 157 1.6 6.4 0.00 0.00 0.00 70 1011.8
20260905165403 35 144 1.6 6.4 0.00 0.00 0.00 70 1011.8
20260905164503 35 170 0.0 8.0 0.00 0.00 0.00 70 1012.1
20260905163603 35 240 1.6 3.2 0.00 0.00 0.00 69 1012.2
20260905162703 34 54 1.6 6.4 0.00 0.00 0.00 71 1012.3
20260905161803 34 188 1.6 6.4 0.00 0.00 0.00 73 1012.4
20260905160924 33 73 1.6 11.3 0.00 0.00 0.00 74 1012.4
20260905160003 33 18 3.2 9.7 0.00 0.00 0.00 72 1012.4
20260905155403 33 4 1.6 9.7 0.00 0.00 0.00 74 1012.4
20260905154503 33 27 1.6 4.8 0.00 0.00 0.00 76 1012.6
20260905153603 33 114 1.6 4.8 0.00 0.00 0.00 74 1012.7
20260905152703 33 30 1.6 9.7 0.00 0.00 0.00 75 1012.8
20260905151824 33 144 1.6 8.0 0.00 0.00 0.00 77 1012.9
20260905150903 33 173 1.6 4.8 0.00 0.00 0.00 77 1012.8
20260905150003 32 174 1.6 8.0 0.00 0.00 0.00 77 1013.1
20260905145403 32 159 0.0 8.0 0.00 0.00 0.00 77 1013.1
20260905144503 32 300 0.0 1.6 0.00 0.00 0.00 79 1013.2
20260905143603 31 7 1.6 6.4 0.00 0.00 0.00 80 1013.3
20260905142703 31 118 1.6 9.7 0.00 0.00 0.00 79 1013.3
20260905141803 31 297 0.0 4.8 0.00 0.00 0.00 81 1013.2
20260905140903 31 353 0.0 6.4 0.00 0.00 0.00 83 1013.3
20260905140024 31 306 0.0 3.2 0.00 0.00 0.00 82 1013.2
20260905135403 31 293 0.0 3.2 0.00 0.00 0.00 82 1013.3
20260905134503 30 307 0.0 3.2 0.00 0.00 0.00 83 1013.3
20260905133603 30 112 0.0 3.2 0.00 0.00 0.00 83 1013.3
20260905132703 30 126 0.0 4.8 0.00 0.00 0.00 85 1013.4
20260905131803 29 89 0.0 4.8 0.00 0.00 0.00 86 1013.4
20260905130903 28 60 0.0 4.8 0.00 0.00 0.00 87 1013.7
20260905130003 28 320 0.0 1.6 0.00 0.00 0.00 88 1013.6
20260905125403 27 332 1.6 9.7 0.00 0.00 0.00 89 1013.6
20260905124503 27 73 0.0 6.4 0.00 0.00 0.00 89 1013.7
20260905123603 27 271 0.0 1.6 0.00 0.00 0.00 90 1013.5
20260905122703 27 67 0.0 3.2 0.00 0.00 0.00 92 1013.5
20260905121802 26 233 0.0 1.6 0.00 0.00 0.00 92 1013.4